Time,TemperatureF,DewpointF,PressureIn,WindDirection,WindDirectionDegrees,WindSpeedMPH,WindSpeedGustMPH,Humidity,HourlyPrecipIn,Conditions,Clouds,dailyrainin,SoftwareType,DateUTC
2013-05-04 00:03:00,58.1,48.0,30.00,NE,45,0.0,0.0,69,0.00,,,0.00,WUHU21623XXSP,2013-05-04 04:03:00,
2013-05-04 00:08:00,58.1,47.6,30.00,NE,45,0.0,0.0,68,0.00,,,0.00,WUHU21623XXSP,2013-05-04 04:08:00,
2013-05-04 00:13:00,58.1,47.6,30.00,NE,45,0.0,2.9,68,0.00,,,0.00,WUHU21623XXSP,2013-05-04 04:13:00,
2013-05-04 00:18:00,58.1,47.6,30.00,NE,45,0.0,2.9,68,0.00,,,0.00,WUHU21623XXSP,2013-05-04 04:18:00,
2013-05-04 00:23:00,58.1,47.6,30.00,NE,45,0.0,2.0,68,0.00,,,0.00,WUHU21623XXSP,2013-05-04 04:23:00,
2013-05-04 00:28:00,58.1,47.6,30.00,NE,45,0.0,2.0,68,0.00,,,0.00,WUHU21623XXSP,2013-05-04 04:28:00,
2013-05-04 00:33:00,58.1,47.6,29.99,NE,45,1.3,1.3,68,0.00,,,0.00,WUHU21623XXSP,2013-05-04 04:33:00,
2013-05-04 00:38:00,58.3,47.7,29.99,NNE,22,0.0,1.3,68,0.00,,,0.00,WUHU21623XXSP,2013-05-04 04:38:00,
2013-05-04 00:43:00,58.3,47.7,29.99,NE,45,2.0,2.0,68,0.00,,,0.00,WUHU21623XXSP,2013-05-04 04:43:00,
2013-05-04 00:48:00,58.5,47.9,29.99,ENE,67,0.0,2.0,68,0.00,,,0.00,WUHU21623XXSP,2013-05-04 04:48:00,
2013-05-04 00:53:00,58.6,48.1,29.99,ENE,67,0.0,0.0,68,0.00,,,0.00,WUHU21623XXSP,2013-05-04 04:53:00,
2013-05-04 00:58:00,58.6,48.1,29.98,ENE,67,0.0,0.0,68,0.00,,,0.00,WUHU21623XXSP,2013-05-04 04:58:00,
2013-05-04 01:03:00,58.6,48.1,29.98,ENE,67,0.0,0.0,68,0.00,,,0.00,WUHU21623XXSP,2013-05-04 05:03:00,
2013-05-04 01:08:00,58.8,48.3,29.98,ENE,67,2.7,2.7,68,0.00,,,0.00,WUHU21623XXSP,2013-05-04 05:08:00,
2013-05-04 01:13:00,58.8,47.9,29.97,ENE,67,0.0,2.7,67,0.00,,,0.00,WUHU21623XXSP,2013-05-04 05:13:00,
2013-05-04 01:18:00,58.8,47.9,29.97,ENE,67,0.0,0.0,67,0.00,,,0.00,WUHU21623XXSP,2013-05-04 05:18:00,
2013-05-04 01:23:00,58.8,47.9,29.97,NE,45,0.0,0.0,67,0.00,,,0.00,WUHU21623XXSP,2013-05-04 05:23:00,
2013-05-04 01:28:00,58.8,48.3,29.97,ENE,67,0.0,0.0,68,0.00,,,0.00,WUHU21623XXSP,2013-05-04 05:28:00,
2013-05-04 01:33:00,58.8,48.3,29.97,ENE,67,0.0,0.0,68,0.00,,,0.00,WUHU21623XXSP,2013-05-04 05:33:00,
2013-05-04 01:38:00,58.8,48.3,29.97,ENE,67,0.0,0.0,68,0.00,,,0.00,WUHU21623XXSP,2013-05-04 05:38:00,
2013-05-04 01:43:00,58.8,48.3,29.97,ENE,67,0.0,0.0,68,0.00,,,0.00,WUHU21623XXSP,2013-05-04 05:43:00,
2013-05-04 01:48:00,58.8,48.3,29.97,ENE,67,0.0,0.0,68,0.00,,,0.00,WUHU21623XXSP,2013-05-04 05:48:00,
2013-05-04 01:53:00,58.8,48.3,29.96,ENE,67,0.0,0.0,68,0.00,,,0.00,WUHU21623XXSP,2013-05-04 05:53:00,
2013-05-04 01:58:00,58.8,48.3,29.96,ENE,67,0.0,0.0,68,0.00,,,0.00,WUHU21623XXSP,2013-05-04 05:58:00,
2013-05-04 02:03:00,58.8,48.3,29.96,ENE,67,0.0,2.9,68,0.00,,,0.00,WUHU21623XXSP,2013-05-04 06:03:00,
2013-05-04 02:08:00,58.8,48.3,29.95,ENE,67,0.0,2.9,68,0.00,,,0.00,WUHU21623XXSP,2013-05-04 06:08:00,
2013-05-04 02:13:00,58.8,48.3,29.96,ENE,67,0.0,0.0,68,0.00,,,0.00,WUHU21623XXSP,2013-05-04 06:13:00,
2013-05-04 02:19:00,58.8,48.3,29.96,ENE,67,4.9,4.9,68,0.00,,,0.00,WUHU21623XXSP,2013-05-04 06:19:00,
2013-05-04 02:24:00,58.8,48.3,29.96,NE,45,0.0,4.9,68,0.00,,,0.00,WUHU21623XXSP,2013-05-04 06:24:00,
2013-05-04 02:29:00,58.8,47.9,29.95,NE,45,0.7,0.7,67,0.00,,,0.00,WUHU21623XXSP,2013-05-04 06:29:00,
2013-05-04 02:34:00,58.8,47.9,29.95,NE,45,0.0,0.7,67,0.00,,,0.00,WUHU21623XXSP,2013-05-04 06:34:00,
2013-05-04 02:39:00,58.8,47.9,29.95,NE,45,0.0,0.0,67,0.00,,,0.00,WUHU21623XXSP,2013-05-04 06:39:00,
2013-05-04 02:44:00,58.6,47.7,29.95,NE,45,0.0,0.0,67,0.00,,,0.00,WUHU21623XXSP,2013-05-04 06:44:00,
2013-05-04 02:49:00,58.6,48.1,29.95,NE,45,0.0,0.0,68,0.00,,,0.00,WUHU21623XXSP,2013-05-04 06:49:00,
2013-05-04 02:54:00,58.6,48.1,29.95,NE,45,0.0,0.0,68,0.00,,,0.00,WUHU21623XXSP,2013-05-04 06:54:00,
2013-05-04 02:59:00,58.5,47.9,29.94,NE,45,0.0,0.0,68,0.00,,,0.00,WUHU21623XXSP,2013-05-04 06:59:00,
2013-05-04 03:04:00,58.5,47.9,29.94,NE,45,0.0,0.0,68,0.00,,,0.00,WUHU21623XXSP,2013-05-04 07:04:00,
2013-05-04 03:09:00,58.3,47.7,29.95,NE,45,0.0,0.0,68,0.00,,,0.00,WUHU21623XXSP,2013-05-04 07:09:00,
2013-05-04 03:14:00,58.3,47.7,29.94,NE,45,0.0,0.0,68,0.00,,,0.00,WUHU21623XXSP,2013-05-04 07:14:00,
2013-05-04 03:19:00,58.1,47.6,29.94,NE,45,0.0,0.0,68,0.00,,,0.00,WUHU21623XXSP,2013-05-04 07:19:00,
2013-05-04 03:24:00,57.9,47.4,29.94,NE,45,0.0,0.0,68,0.00,,,0.00,WUHU21623XXSP,2013-05-04 07:24:00,
2013-05-04 03:29:00,57.9,47.4,29.94,NE,45,0.0,0.0,68,0.00,,,0.00,WUHU21623XXSP,2013-05-04 07:29:00,
2013-05-04 03:34:00,57.7,47.2,29.94,NE,45,3.6,3.6,68,0.00,,,0.00,WUHU21623XXSP,2013-05-04 07:34:00,
2013-05-04 03:39:00,57.7,47.2,29.94,ENE,67,0.0,3.6,68,0.00,,,0.00,WUHU21623XXSP,2013-05-04 07:39:00,
2013-05-04 03:44:00,57.6,47.0,29.94,NE,45,0.0,0.0,68,0.00,,,0.00,WUHU21623XXSP,2013-05-04 07:44:00,
2013-05-04 03:49:00,57.4,46.9,29.94,NE,45,0.0,0.0,68,0.00,,,0.00,WUHU21623XXSP,2013-05-04 07:49:00,
2013-05-04 03:54:00,57.4,46.9,29.94,NE,45,0.0,0.0,68,0.00,,,0.00,WUHU21623XXSP,2013-05-04 07:54:00,
2013-05-04 03:59:00,57.2,46.7,29.94,NE,45,0.0,0.0,68,0.00,,,0.00,WUHU21623XXSP,2013-05-04 07:59:00,
2013-05-04 04:04:00,57.0,46.1,29.94,ENE,67,0.0,0.0,67,0.00,,,0.00,WUHU21623XXSP,2013-05-04 08:04:00,
2013-05-04 04:09:00,57.0,46.1,29.95,ENE,67,0.0,0.0,67,0.00,,,0.00,WUHU21623XXSP,2013-05-04 08:09:00,
2013-05-04 04:14:00,57.0,46.1,29.95,ENE,67,0.0,0.0,67,0.00,,,0.00,WUHU21623XXSP,2013-05-04 08:14:00,
2013-05-04 04:19:00,56.8,45.6,29.94,ENE,67,0.0,0.0,66,0.00,,,0.00,WUHU21623XXSP,2013-05-04 08:19:00,
2013-05-04 04:24:00,56.8,45.6,29.95,East,90,0.0,0.0,66,0.00,,,0.00,WUHU21623XXSP,2013-05-04 08:24:00,
2013-05-04 04:29:00,56.8,45.6,29.95,NE,45,0.0,0.0,66,0.00,,,0.00,WUHU21623XXSP,2013-05-04 08:29:00,
2013-05-04 04:34:00,56.7,45.4,29.95,ENE,67,0.0,0.0,66,0.00,,,0.00,WUHU21623XXSP,2013-05-04 08:34:00,
2013-05-04 04:39:00,56.5,45.2,29.95,ENE,67,0.0,3.6,66,0.00,,,0.00,WUHU21623XXSP,2013-05-04 08:39:00,
2013-05-04 04:44:00,56.5,45.2,29.95,ENE,67,0.0,3.6,66,0.00,,,0.00,WUHU21623XXSP,2013-05-04 08:44:00,
2013-05-04 04:49:00,56.3,45.0,29.96,ENE,67,0.0,0.0,66,0.00,,,0.00,WUHU21623XXSP,2013-05-04 08:49:00,
2013-05-04 04:54:00,56.1,45.3,29.95,ENE,67,0.0,0.0,67,0.00,,,0.00,WUHU21623XXSP,2013-05-04 08:54:00,
2013-05-04 04:59:00,56.1,45.3,29.95,ENE,67,0.0,0.0,67,0.00,,,0.00,WUHU21623XXSP,2013-05-04 08:59:00,
2013-05-04 05:04:00,55.9,45.1,29.95,ENE,67,4.7,4.7,67,0.00,,,0.00,WUHU21623XXSP,2013-05-04 09:04:00,
2013-05-04 05:09:00,55.8,44.9,29.94,NE,45,0.0,4.7,67,0.00,,,0.00,WUHU21623XXSP,2013-05-04 09:09:00,
2013-05-04 05:14:00,55.6,44.9,29.94,NE,45,0.0,3.4,67,0.00,,,0.00,WUHU21623XXSP,2013-05-04 09:14:00,
2013-05-04 05:19:00,55.4,44.2,29.94,ENE,67,0.0,6.0,66,0.00,,,0.00,WUHU21623XXSP,2013-05-04 09:19:00,
2013-05-04 05:24:00,55.2,44.0,29.94,ENE,67,4.3,6.0,66,0.00,,,0.00,WUHU21623XXSP,2013-05-04 09:24:00,
2013-05-04 05:29:00,55.2,43.6,29.94,ENE,67,0.0,4.3,65,0.00,,,0.00,WUHU21623XXSP,2013-05-04 09:29:00,
2013-05-04 05:34:00,55.2,43.6,29.94,ENE,67,0.0,0.0,65,0.00,,,0.00,WUHU21623XXSP,2013-05-04 09:34:00,
2013-05-04 05:39:00,55.0,43.4,29.94,ENE,67,0.0,0.0,65,0.00,,,0.00,WUHU21623XXSP,2013-05-04 09:39:00,
2013-05-04 05:44:00,55.0,43.0,29.94,ENE,67,0.0,0.0,64,0.00,,,0.00,WUHU21623XXSP,2013-05-04 09:44:00,
2013-05-04 05:49:00,55.0,43.0,29.94,ENE,67,3.8,3.8,64,0.00,,,0.00,WUHU21623XXSP,2013-05-04 09:49:00,
2013-05-04 05:54:00,54.9,42.9,29.94,ENE,67,0.0,3.8,64,0.00,,,0.00,WUHU21623XXSP,2013-05-04 09:54:00,
2013-05-04 05:59:00,54.9,42.5,29.94,ENE,67,0.0,0.0,63,0.00,,,0.00,WUHU21623XXSP,2013-05-04 09:59:00,
2013-05-04 06:04:00,54.9,42.0,29.94,ENE,67,0.0,4.3,62,0.00,,,0.00,WUHU21623XXSP,2013-05-04 10:04:00,
2013-05-04 06:09:00,54.9,42.0,29.94,ENE,67,0.0,4.3,62,0.00,,,0.00,WUHU21623XXSP,2013-05-04 10:09:00,
2013-05-04 06:14:00,54.9,42.0,29.94,ENE,67,0.0,0.0,62,0.00,,,0.00,WUHU21623XXSP,2013-05-04 10:14:00,
2013-05-04 06:19:00,54.9,41.6,29.95,ENE,67,0.0,0.0,61,0.00,,,0.00,WUHU21623XXSP,2013-05-04 10:19:00,
2013-05-04 06:24:00,54.9,41.6,29.95,ENE,67,6.3,6.3,61,0.00,,,0.00,WUHU21623XXSP,2013-05-04 10:24:00,
2013-05-04 06:29:00,54.9,41.2,29.95,ENE,67,0.0,6.3,60,0.00,,,0.00,WUHU21623XXSP,2013-05-04 10:29:00,
2013-05-04 06:34:00,54.7,41.1,29.95,ENE,67,0.0,3.1,60,0.00,,,0.00,WUHU21623XXSP,2013-05-04 10:34:00,
2013-05-04 06:40:00,54.7,41.5,29.95,ENE,67,0.0,0.0,61,0.00,,,0.00,WUHU21623XXSP,2013-05-04 10:40:00,
2013-05-04 06:45:00,54.7,41.5,29.95,ENE,67,0.0,0.0,61,0.00,,,0.00,WUHU21623XXSP,2013-05-04 10:45:00,
2013-05-04 06:50:00,54.7,41.5,29.95,ENE,67,0.0,0.0,61,0.00,,,0.00,WUHU21623XXSP,2013-05-04 10:50:00,
2013-05-04 06:55:00,54.7,41.5,29.96,ENE,67,0.0,0.0,61,0.00,,,0.00,WUHU21623XXSP,2013-05-04 10:55:00,
2013-05-04 07:00:00,54.7,41.5,29.95,ENE,67,0.0,2.5,61,0.00,,,0.00,WUHU21623XXSP,2013-05-04 11:00:00,
2013-05-04 07:05:00,54.7,41.9,29.95,ENE,67,0.0,2.5,62,0.00,,,0.00,WUHU21623XXSP,2013-05-04 11:05:00,
2013-05-04 07:10:00,54.7,41.9,29.95,ENE,67,0.0,0.0,62,0.00,,,0.00,WUHU21623XXSP,2013-05-04 11:10:00,
2013-05-04 07:15:00,54.7,42.3,29.95,ENE,67,0.0,0.0,63,0.00,,,0.00,WUHU21623XXSP,2013-05-04 11:15:00,
2013-05-04 07:20:00,54.7,42.3,29.95,ENE,67,0.0,3.4,63,0.00,,,0.00,WUHU21623XXSP,2013-05-04 11:20:00,
2013-05-04 07:25:00,54.9,42.3,29.95,ENE,67,0.0,3.4,63,0.00,,,0.00,WUHU21623XXSP,2013-05-04 11:25:00,
2013-05-04 07:30:00,54.5,43.3,29.96,ENE,67,0.0,0.0,66,0.00,,,0.00,WUHU21623XXSP,2013-05-04 11:30:00,
2013-05-04 07:35:00,54.3,43.6,29.95,ENE,67,0.0,0.0,67,0.00,,,0.00,WUHU21623XXSP,2013-05-04 11:35:00,
2013-05-04 07:40:00,54.0,43.6,29.96,ENE,67,0.0,0.0,68,0.00,,,0.00,WUHU21623XXSP,2013-05-04 11:40:00,
2013-05-04 07:45:00,53.8,43.8,29.96,ENE,67,0.0,0.0,69,0.00,,,0.00,WUHU21623XXSP,2013-05-04 11:45:00,
2013-05-04 07:50:00,53.4,43.5,29.96,ENE,67,0.0,0.0,69,0.00,,,0.00,WUHU21623XXSP,2013-05-04 11:50:00,
2013-05-04 07:55:00,53.4,43.9,29.97,ENE,67,0.0,0.0,70,0.00,,,0.00,WUHU21623XXSP,2013-05-04 11:55:00,
2013-05-04 08:00:00,53.4,43.9,29.97,ENE,67,0.0,0.0,70,0.00,,,0.00,WUHU21623XXSP,2013-05-04 12:00:00,
2013-05-04 08:05:00,53.4,44.2,29.97,ENE,67,0.0,0.0,71,0.00,,,0.00,WUHU21623XXSP,2013-05-04 12:05:00,
2013-05-04 08:10:00,53.4,44.2,29.96,ENE,67,0.0,0.0,71,0.00,,,0.00,WUHU21623XXSP,2013-05-04 12:10:00,
2013-05-04 08:15:00,53.4,44.2,29.96,ENE,67,0.0,0.0,71,0.00,,,0.00,WUHU21623XXSP,2013-05-04 12:15:00,
2013-05-04 08:20:00,53.4,44.6,29.96,ENE,67,0.0,0.0,72,0.00,,,0.00,WUHU21623XXSP,2013-05-04 12:20:00,
2013-05-04 08:25:00,53.8,44.9,29.96,ENE,67,0.0,0.0,72,0.00,,,0.00,WUHU21623XXSP,2013-05-04 12:25:00,
2013-05-04 08:30:00,53.8,44.9,29.96,ENE,67,0.0,0.0,72,0.00,,,0.00,WUHU21623XXSP,2013-05-04 12:30:00,
2013-05-04 08:35:00,54.0,45.1,29.96,ENE,67,0.0,0.0,72,0.00,,,0.00,WUHU21623XXSP,2013-05-04 12:35:00,
2013-05-04 08:40:00,54.0,45.1,29.97,ENE,67,0.0,0.0,72,0.00,,,0.00,WUHU21623XXSP,2013-05-04 12:40:00,
2013-05-04 08:45:00,54.0,45.1,29.97,ENE,67,0.0,0.0,72,0.00,,,0.00,WUHU21623XXSP,2013-05-04 12:45:00,
2013-05-04 08:51:00,53.8,44.9,29.97,ENE,67,0.0,0.0,72,0.00,,,0.00,WUHU21623XXSP,2013-05-04 12:51:00,
2013-05-04 08:56:00,53.6,45.1,29.96,ENE,67,0.0,0.0,73,0.00,,,0.00,WUHU21623XXSP,2013-05-04 12:56:00,
2013-05-04 09:01:00,53.2,45.2,29.96,ENE,67,0.0,0.0,74,0.00,,,0.00,WUHU21623XXSP,2013-05-04 13:01:00,
2013-05-04 09:06:00,53.1,45.3,29.96,ENE,67,0.0,0.0,75,0.00,,,0.00,WUHU21623XXSP,2013-05-04 13:06:00,
2013-05-04 09:11:00,52.9,45.5,29.96,ENE,67,0.0,0.0,76,0.00,,,0.00,WUHU21623XXSP,2013-05-04 13:11:00,
2013-05-04 09:16:00,52.9,45.5,29.96,ENE,67,0.0,0.0,76,0.00,,,0.00,WUHU21623XXSP,2013-05-04 13:16:00,
2013-05-04 09:21:00,52.9,45.7,29.96,ENE,67,0.0,0.0,77,0.00,,,0.00,WUHU21623XXSP,2013-05-04 13:21:00,
2013-05-04 09:26:00,53.2,46.2,29.95,ENE,67,0.0,0.0,78,0.00,,,0.00,WUHU21623XXSP,2013-05-04 13:26:00,
2013-05-04 09:31:00,53.2,46.6,29.95,ENE,67,0.0,0.0,78,0.02,,,0.00,WUHU21623XXSP,2013-05-04 13:31:00,
2013-05-04 09:36:00,53.2,46.6,29.95,ENE,67,0.0,0.0,78,0.02,,,0.02,WUHU21623XXSP,2013-05-04 13:36:00,
2013-05-04 09:41:00,53.2,46.6,29.95,ENE,67,0.0,0.0,78,0.02,,,0.02,WUHU21623XXSP,2013-05-04 13:41:00,
2013-05-04 09:46:00,53.2,46.6,29.95,ENE,67,0.0,0.0,78,0.02,,,0.02,WUHU21623XXSP,2013-05-04 13:46:00,
2013-05-04 09:51:00,53.2,46.6,29.95,ENE,67,0.0,0.0,78,0.02,,,0.02,WUHU21623XXSP,2013-05-04 13:51:00,
2013-05-04 09:56:00,53.4,46.8,29.96,ENE,67,0.0,0.0,78,0.02,,,0.02,WUHU21623XXSP,2013-05-04 13:56:00,
2013-05-04 10:01:00,53.4,46.4,29.95,ENE,67,0.0,0.0,77,0.02,,,0.02,WUHU21623XXSP,2013-05-04 14:01:00,
2013-05-04 10:06:00,53.4,46.4,29.95,ENE,67,0.0,0.0,77,0.02,,,0.02,WUHU21623XXSP,2013-05-04 14:06:00,
2013-05-04 10:11:00,53.4,46.4,29.95,ENE,67,0.0,2.7,77,0.02,,,0.02,WUHU21623XXSP,2013-05-04 14:11:00,
2013-05-04 10:16:00,53.4,46.4,29.95,ENE,67,0.0,2.7,78,0.02,,,0.02,WUHU21623XXSP,2013-05-04 14:16:00,
2013-05-04 10:21:00,53.4,46.8,29.95,ENE,67,0.0,0.0,78,0.02,,,0.02,WUHU21623XXSP,2013-05-04 14:21:00,
2013-05-04 10:26:00,53.2,46.9,29.95,ENE,67,0.0,0.0,79,0.02,,,0.02,WUHU21623XXSP,2013-05-04 14:26:00,
2013-05-04 10:31:00,53.2,47.3,29.95,ENE,67,0.0,0.0,80,0.00,,,0.02,WUHU21623XXSP,2013-05-04 14:31:00,
2013-05-04 10:36:00,53.4,47.5,29.94,ENE,67,4.3,4.3,80,0.00,,,0.02,WUHU21623XXSP,2013-05-04 14:36:00,
2013-05-04 10:41:00,53.4,47.5,29.94,ENE,67,0.0,4.3,80,0.00,,,0.02,WUHU21623XXSP,2013-05-04 14:41:00,
2013-05-04 10:46:00,53.4,47.5,29.94,ENE,67,0.0,4.3,80,0.00,,,0.02,WUHU21623XXSP,2013-05-04 14:46:00,
2013-05-04 10:51:00,54.0,48.3,29.95,ENE,67,0.0,0.0,81,0.00,,,0.02,WUHU21623XXSP,2013-05-04 14:51:00,
2013-05-04 10:56:00,54.3,48.5,29.94,ENE,67,0.0,0.0,81,0.00,,,0.02,WUHU21623XXSP,2013-05-04 14:56:00,
2013-05-04 11:01:00,54.5,48.8,29.94,ENE,67,0.0,0.0,81,0.00,,,0.02,WUHU21623XXSP,2013-05-04 15:01:00,
2013-05-04 11:06:00,54.5,48.8,29.94,ENE,67,0.0,0.0,81,0.00,,,0.02,WUHU21623XXSP,2013-05-04 15:06:00,
2013-05-04 11:11:00,54.5,48.5,29.94,ENE,67,0.0,0.0,80,0.00,,,0.02,WUHU21623XXSP,2013-05-04 15:11:00,
2013-05-04 11:16:00,54.7,48.9,29.94,ENE,67,0.0,0.0,81,0.00,,,0.02,WUHU21623XXSP,2013-05-04 15:16:00,
2013-05-04 11:21:00,55.6,49.8,29.94,ENE,67,0.0,0.0,81,0.00,,,0.02,WUHU21623XXSP,2013-05-04 15:21:00,
2013-05-04 11:26:00,55.9,50.0,29.94,ENE,67,0.0,0.0,81,0.00,,,0.02,WUHU21623XXSP,2013-05-04 15:26:00,
2013-05-04 11:31:00,56.5,50.0,29.94,ENE,67,0.0,0.0,80,0.00,,,0.02,WUHU21623XXSP,2013-05-04 15:31:00,
2013-05-04 11:36:00,57.0,50.7,29.94,ENE,67,0.0,0.0,79,0.00,,,0.02,WUHU21623XXSP,2013-05-04 15:36:00,
2013-05-04 11:41:00,57.6,50.7,29.94,ENE,67,0.0,1.3,78,0.00,,,0.02,WUHU21623XXSP,2013-05-04 15:41:00,
2013-05-04 11:46:00,57.9,50.7,29.94,ENE,67,0.0,1.3,77,0.00,,,0.02,WUHU21623XXSP,2013-05-04 15:46:00,
2013-05-04 11:51:00,58.3,50.7,29.93,ENE,67,0.0,2.5,76,0.00,,,0.02,WUHU21623XXSP,2013-05-04 15:51:00,
2013-05-04 11:56:00,58.5,50.5,29.93,ENE,67,0.0,2.5,75,0.00,,,0.02,WUHU21623XXSP,2013-05-04 15:56:00,
2013-05-04 12:01:00,58.8,51.1,29.93,ENE,67,0.0,0.0,75,0.00,,,0.02,WUHU21623XXSP,2013-05-04 16:01:00,
2013-05-04 12:06:00,59.0,51.1,29.93,ENE,67,0.0,0.0,75,0.00,,,0.02,WUHU21623XXSP,2013-05-04 16:06:00,
2013-05-04 12:11:00,59.5,51.1,29.94,ENE,67,0.0,0.0,74,0.00,,,0.02,WUHU21623XXSP,2013-05-04 16:11:00,
2013-05-04 12:16:00,59.5,50.9,29.94,ENE,67,0.0,0.0,72,0.00,,,0.02,WUHU21623XXSP,2013-05-04 16:16:00,
2013-05-04 12:21:00,59.5,50.5,29.94,ESE,112,1.1,1.1,72,0.00,,,0.02,WUHU21623XXSP,2013-05-04 16:21:00,
2013-05-04 12:26:00,59.2,50.2,29.94,ESE,112,0.0,1.1,72,0.00,,,0.02,WUHU21623XXSP,2013-05-04 16:26:00,
2013-05-04 12:31:00,59.4,50.2,29.94,NE,45,0.0,0.0,72,0.00,,,0.02,WUHU21623XXSP,2013-05-04 16:31:00,
2013-05-04 12:36:00,59.2,50.2,29.93,ESE,112,0.0,0.0,72,0.00,,,0.02,WUHU21623XXSP,2013-05-04 16:36:00,
2013-05-04 12:41:00,58.8,49.8,29.92,ENE,67,5.8,5.8,72,0.00,,,0.02,WUHU21623XXSP,2013-05-04 16:41:00,
2013-05-04 12:46:00,58.6,49.8,29.93,NE,45,0.0,5.8,72,0.00,,,0.02,WUHU21623XXSP,2013-05-04 16:46:00,
2013-05-04 12:51:00,58.3,49.3,29.93,NE,45,0.0,0.0,72,0.00,,,0.02,WUHU21623XXSP,2013-05-04 16:51:00,
2013-05-04 12:56:00,57.9,49.5,29.93,NE,45,0.0,0.0,73,0.00,,,0.02,WUHU21623XXSP,2013-05-04 16:56:00,
2013-05-04 13:02:00,57.6,49.6,29.93,NE,45,0.0,0.0,75,0.00,,,0.02,WUHU21623XXSP,2013-05-04 17:02:00,
2013-05-04 13:07:00,57.7,50.2,29.92,NE,45,0.0,0.0,76,0.02,,,0.02,WUHU21623XXSP,2013-05-04 17:07:00,
2013-05-04 13:12:00,58.1,50.5,29.92,NE,45,0.0,0.0,76,0.02,,,0.04,WUHU21623XXSP,2013-05-04 17:12:00,
2013-05-04 13:17:00,58.8,51.3,29.92,NE,45,0.0,0.0,76,0.02,,,0.04,WUHU21623XXSP,2013-05-04 17:17:00,
2013-05-04 13:22:00,59.9,51.8,29.91,NE,45,0.0,0.0,77,0.02,,,0.04,WUHU21623XXSP,2013-05-04 17:22:00,
2013-05-04 13:27:00,61.0,53.2,29.91,NE,45,0.0,0.0,77,0.02,,,0.04,WUHU21623XXSP,2013-05-04 17:27:00,
2013-05-04 13:32:00,61.9,53.5,29.92,NE,45,0.0,0.0,74,0.02,,,0.04,WUHU21623XXSP,2013-05-04 17:32:00,
2013-05-04 13:37:00,61.9,53.1,29.92,ENE,67,0.0,0.0,73,0.02,,,0.04,WUHU21623XXSP,2013-05-04 17:37:00,
2013-05-04 13:42:00,61.5,53.0,29.92,ENE,67,0.0,0.0,72,0.02,,,0.04,WUHU21623XXSP,2013-05-04 17:42:00,
2013-05-04 13:47:00,61.2,52.1,29.92,ENE,67,0.0,0.0,72,0.02,,,0.04,WUHU21623XXSP,2013-05-04 17:47:00,
2013-05-04 13:52:00,60.6,51.6,29.92,ENE,67,0.0,0.0,72,0.02,,,0.04,WUHU21623XXSP,2013-05-04 17:52:00,
2013-05-04 13:57:00,60.4,51.6,29.92,ENE,67,0.0,0.0,72,0.02,,,0.04,WUHU21623XXSP,2013-05-04 17:57:00,
2013-05-04 14:02:00,59.7,50.7,29.92,ENE,67,0.0,0.0,72,0.00,,,0.04,WUHU21623XXSP,2013-05-04 18:02:00,
2013-05-04 14:07:00,59.4,50.5,29.92,ENE,67,0.0,0.0,72,0.00,,,0.04,WUHU21623XXSP,2013-05-04 18:07:00,
2013-05-04 14:12:00,58.8,49.8,29.92,ENE,67,0.0,0.0,72,0.00,,,0.04,WUHU21623XXSP,2013-05-04 18:12:00,
2013-05-04 14:17:00,58.1,49.8,29.91,ENE,67,0.0,0.0,74,0.00,,,0.04,WUHU21623XXSP,2013-05-04 18:17:00,
2013-05-04 14:22:00,57.6,49.6,29.91,ENE,67,0.0,0.0,75,0.00,,,0.04,WUHU21623XXSP,2013-05-04 18:22:00,
2013-05-04 14:27:00,57.2,49.6,29.90,ENE,67,0.0,0.0,76,0.00,,,0.04,WUHU21623XXSP,2013-05-04 18:27:00,
2013-05-04 14:32:00,57.2,50.0,29.90,ENE,67,0.0,0.0,77,0.02,,,0.06,WUHU21623XXSP,2013-05-04 18:32:00,
2013-05-04 14:37:00,57.6,50.4,29.90,ENE,67,0.0,0.0,77,0.02,,,0.06,WUHU21623XXSP,2013-05-04 18:37:00,
2013-05-04 14:42:00,57.7,50.5,29.90,ENE,67,0.0,0.0,77,0.02,,,0.06,WUHU21623XXSP,2013-05-04 18:42:00,
2013-05-04 14:47:00,57.7,50.5,29.90,ENE,67,0.0,0.0,77,0.02,,,0.06,WUHU21623XXSP,2013-05-04 18:47:00,
2013-05-04 14:52:00,57.7,50.5,29.90,ENE,67,0.0,0.0,77,0.02,,,0.06,WUHU21623XXSP,2013-05-04 18:52:00,
2013-05-04 14:57:00,57.6,50.4,29.90,ENE,67,0.0,3.1,77,0.02,,,0.06,WUHU21623XXSP,2013-05-04 18:57:00,
2013-05-04 15:02:00,57.4,50.2,29.90,NE,45,1.6,3.1,77,0.02,,,0.06,WUHU21623XXSP,2013-05-04 19:02:00,
2013-05-04 15:07:00,56.8,49.6,29.90,NE,45,0.0,1.6,77,0.02,,,0.06,WUHU21623XXSP,2013-05-04 19:07:00,
2013-05-04 15:12:00,56.8,50.0,29.90,NE,45,0.0,0.0,78,0.02,,,0.06,WUHU21623XXSP,2013-05-04 19:12:00,
2013-05-04 15:17:00,56.7,49.8,29.91,NE,45,0.0,0.0,78,0.02,,,0.06,WUHU21623XXSP,2013-05-04 19:17:00,
2013-05-04 15:22:00,56.5,49.6,29.92,NE,45,0.0,0.0,78,0.04,,,0.06,WUHU21623XXSP,2013-05-04 19:22:00,
2013-05-04 15:27:00,56.1,49.5,29.92,NE,45,0.0,0.0,79,0.04,,,0.08,WUHU21623XXSP,2013-05-04 19:27:00,
2013-05-04 15:32:00,55.9,49.8,29.91,NE,45,0.0,1.6,80,0.04,,,0.10,WUHU21623XXSP,2013-05-04 19:32:00,
2013-05-04 15:37:00,55.4,49.5,29.91,NE,45,0.0,1.6,80,0.04,,,0.10,WUHU21623XXSP,2013-05-04 19:37:00,
2013-05-04 15:42:00,55.0,49.3,29.93,ENE,67,0.0,0.9,81,0.04,,,0.10,WUHU21623XXSP,2013-05-04 19:42:00,
2013-05-04 15:47:00,54.7,49.3,29.92,ENE,67,0.0,0.9,81,0.04,,,0.10,WUHU21623XXSP,2013-05-04 19:47:00,
2013-05-04 15:52:00,54.3,48.6,29.91,ENE,67,0.0,0.0,81,0.04,,,0.10,WUHU21623XXSP,2013-05-04 19:52:00,
2013-05-04 15:57:00,54.0,48.3,29.91,ENE,67,0.0,0.0,81,0.06,,,0.10,WUHU21623XXSP,2013-05-04 19:57:00,
2013-05-04 16:02:00,54.0,48.6,29.91,NE,45,0.0,0.0,82,0.06,,,0.12,WUHU21623XXSP,2013-05-04 20:02:00,
2013-05-04 16:07:00,53.8,48.4,29.91,NE,45,1.6,1.6,82,0.06,,,0.12,WUHU21623XXSP,2013-05-04 20:07:00,
2013-05-04 16:12:00,53.8,48.7,29.90,NE,45,0.0,1.6,83,0.06,,,0.12,WUHU21623XXSP,2013-05-04 20:12:00,
2013-05-04 16:17:00,53.8,48.4,29.90,NE,45,0.0,0.0,82,0.06,,,0.12,WUHU21623XXSP,2013-05-04 20:17:00,
2013-05-04 16:22:00,54.0,48.4,29.90,NE,45,0.0,0.0,82,0.04,,,0.12,WUHU21623XXSP,2013-05-04 20:22:00,
2013-05-04 16:27:00,54.0,48.6,29.90,NE,45,0.0,0.0,82,0.04,,,0.12,WUHU21623XXSP,2013-05-04 20:27:00,
2013-05-04 16:32:00,54.1,49.1,29.90,NE,45,0.0,0.0,83,0.02,,,0.12,WUHU21623XXSP,2013-05-04 20:32:00,
2013-05-04 16:37:00,54.1,49.1,29.90,NE,45,0.0,0.0,83,0.02,,,0.12,WUHU21623XXSP,2013-05-04 20:37:00,
2013-05-04 16:42:00,54.3,49.2,29.91,NE,45,0.0,1.6,83,0.02,,,0.12,WUHU21623XXSP,2013-05-04 20:42:00,
2013-05-04 16:47:00,54.3,49.2,29.92,NE,45,0.0,1.6,83,0.02,,,0.12,WUHU21623XXSP,2013-05-04 20:47:00,
2013-05-04 16:52:00,54.1,49.1,29.92,ENE,67,0.0,0.0,83,0.02,,,0.12,WUHU21623XXSP,2013-05-04 20:52:00,
2013-05-04 16:57:00,54.0,48.9,29.92,ENE,67,0.0,0.0,83,0.02,,,0.12,WUHU21623XXSP,2013-05-04 20:57:00,
2013-05-04 17:02:00,53.8,48.7,29.91,ENE,67,0.0,0.0,83,0.04,,,0.14,WUHU21623XXSP,2013-05-04 21:02:00,
2013-05-04 17:07:00,53.8,49.0,29.90,ENE,67,3.6,3.6,84,0.04,,,0.16,WUHU21623XXSP,2013-05-04 21:07:00,
2013-05-04 17:12:00,53.4,48.7,29.89,ENE,67,0.0,3.6,84,0.10,,,0.18,WUHU21623XXSP,2013-05-04 21:12:00,
2013-05-04 17:18:00,53.2,48.5,29.90,ENE,67,0.0,2.0,84,0.10,,,0.22,WUHU21623XXSP,2013-05-04 21:18:00,
2013-05-04 17:23:00,53.2,48.5,29.90,ENE,67,0.0,0.0,84,0.12,,,0.22,WUHU21623XXSP,2013-05-04 21:23:00,
2013-05-04 17:28:00,52.9,48.5,29.91,ENE,67,0.0,0.0,85,0.12,,,0.24,WUHU21623XXSP,2013-05-04 21:28:00,
2013-05-04 17:33:00,52.9,48.5,29.91,ENE,67,0.0,0.0,85,0.14,,,0.26,WUHU21623XXSP,2013-05-04 21:33:00,
2013-05-04 17:38:00,52.7,48.3,29.92,ENE,67,0.0,0.0,85,0.14,,,0.26,WUHU21623XXSP,2013-05-04 21:38:00,
2013-05-04 17:43:00,52.9,48.5,29.93,ENE,67,0.0,0.0,85,0.16,,,0.28,WUHU21623XXSP,2013-05-04 21:43:00,
2013-05-04 17:48:00,52.9,48.5,29.94,ENE,67,0.0,0.0,85,0.18,,,0.28,WUHU21623XXSP,2013-05-04 21:48:00,
2013-05-04 17:53:00,52.7,48.3,29.94,ENE,67,0.0,0.0,85,0.18,,,0.30,WUHU21623XXSP,2013-05-04 21:53:00,
2013-05-04 17:58:00,52.5,48.4,29.93,ENE,67,0.0,0.0,86,0.20,,,0.32,WUHU21623XXSP,2013-05-04 21:58:00,
2013-05-04 18:03:00,52.5,48.4,29.92,ENE,67,0.0,2.2,86,0.18,,,0.34,WUHU21623XXSP,2013-05-04 22:03:00,
2013-05-04 18:08:00,52.3,48.2,29.89,ENE,67,0.7,5.8,86,0.18,,,0.37,WUHU21623XXSP,2013-05-04 22:08:00,
2013-05-04 18:13:00,52.2,48.1,29.88,ENE,67,2.9,5.8,86,0.18,,,0.37,WUHU21623XXSP,2013-05-04 22:13:00,
2013-05-04 18:18:00,52.2,48.4,29.89,ENE,67,0.0,2.9,87,0.20,,,0.43,WUHU21623XXSP,2013-05-04 22:18:00,
2013-05-04 18:23:00,52.2,48.4,29.91,ENE,67,0.0,2.0,87,0.22,,,0.47,WUHU21623XXSP,2013-05-04 22:23:00,
2013-05-04 18:28:00,52.2,48.4,29.93,ENE,67,0.0,0.0,87,0.22,,,0.47,WUHU21623XXSP,2013-05-04 22:28:00,
2013-05-04 18:33:00,52.2,48.4,29.93,ENE,67,0.0,0.0,87,0.22,,,0.49,WUHU21623XXSP,2013-05-04 22:33:00,
2013-05-04 18:38:00,52.3,48.5,29.92,ENE,67,0.0,0.0,87,0.20,,,0.49,WUHU21623XXSP,2013-05-04 22:38:00,
2013-05-04 18:43:00,52.2,48.4,29.91,ENE,67,0.0,0.0,87,0.24,,,0.51,WUHU21623XXSP,2013-05-04 22:43:00,
2013-05-04 18:48:00,52.2,48.4,29.92,ENE,67,0.0,0.0,87,0.26,,,0.53,WUHU21623XXSP,2013-05-04 22:48:00,
2013-05-04 18:53:00,52.3,48.5,29.92,ENE,67,0.0,0.0,87,0.22,,,0.57,WUHU21623XXSP,2013-05-04 22:53:00,
2013-05-04 18:58:00,52.2,48.4,29.91,ENE,67,0.0,0.0,87,0.24,,,0.59,WUHU21623XXSP,2013-05-04 22:58:00,
2013-05-04 19:03:00,52.2,48.7,29.90,ENE,67,0.0,0.0,88,0.22,,,0.59,WUHU21623XXSP,2013-05-04 23:03:00,
2013-05-04 19:08:00,52.3,48.8,29.90,ENE,67,0.0,0.0,88,0.22,,,0.61,WUHU21623XXSP,2013-05-04 23:08:00,
2013-05-04 19:13:00,52.3,48.8,29.90,ENE,67,0.0,0.0,88,0.18,,,0.61,WUHU21623XXSP,2013-05-04 23:13:00,
2013-05-04 19:18:00,52.3,48.8,29.91,ENE,67,0.0,0.0,88,0.16,,,0.61,WUHU21623XXSP,2013-05-04 23:18:00,
2013-05-04 19:23:00,52.3,48.8,29.92,ENE,67,0.0,0.0,88,0.14,,,0.61,WUHU21623XXSP,2013-05-04 23:23:00,
2013-05-04 19:28:00,52.5,49.0,29.92,ENE,67,0.0,0.0,88,0.14,,,0.61,WUHU21623XXSP,2013-05-04 23:28:00,
2013-05-04 19:33:00,52.5,49.0,29.91,ENE,67,0.0,0.0,88,0.12,,,0.61,WUHU21623XXSP,2013-05-04 23:33:00,
2013-05-04 19:38:00,52.3,48.8,29.91,ENE,67,0.0,0.0,88,0.12,,,0.63,WUHU21623XXSP,2013-05-04 23:38:00,
2013-05-04 19:43:00,52.3,48.8,29.92,ENE,67,0.0,0.0,88,0.12,,,0.65,WUHU21623XXSP,2013-05-04 23:43:00,
2013-05-04 19:48:00,52.3,48.8,29.92,ENE,67,0.0,0.0,88,0.12,,,0.65,WUHU21623XXSP,2013-05-04 23:48:00,
2013-05-04 19:53:00,52.3,48.8,29.91,ENE,67,0.0,0.0,88,0.12,,,0.69,WUHU21623XXSP,2013-05-04 23:53:00,
2013-05-04 19:58:00,52.3,48.8,29.91,ENE,67,0.0,0.0,88,0.14,,,0.71,WUHU21623XXSP,2013-05-04 23:58:00,
2013-05-04 20:03:00,52.3,48.8,29.91,ENE,67,0.0,0.0,88,0.12,,,0.73,WUHU21623XXSP,2013-05-05 00:03:00,
2013-05-04 20:08:00,52.3,48.8,29.91,ENE,67,0.0,0.0,88,0.14,,,0.75,WUHU21623XXSP,2013-05-05 00:08:00,
2013-05-04 20:13:00,52.3,48.8,29.91,ENE,67,0.0,0.0,88,0.14,,,0.75,WUHU21623XXSP,2013-05-05 00:13:00,
2013-05-04 20:18:00,52.3,48.8,29.91,ENE,67,0.0,0.0,88,0.14,,,0.75,WUHU21623XXSP,2013-05-05 00:18:00,
2013-05-04 20:23:00,52.3,48.8,29.90,ENE,67,0.0,0.0,88,0.14,,,0.75,WUHU21623XXSP,2013-05-05 00:23:00,
2013-05-04 20:28:00,52.3,49.2,29.89,ENE,67,0.0,0.0,89,0.14,,,0.75,WUHU21623XXSP,2013-05-05 00:28:00,
2013-05-04 20:33:00,52.3,49.2,29.89,ENE,67,0.0,0.0,89,0.14,,,0.75,WUHU21623XXSP,2013-05-05 00:33:00,
2013-05-04 20:38:00,52.3,49.2,29.90,ENE,67,0.0,0.0,89,0.10,,,0.75,WUHU21623XXSP,2013-05-05 00:38:00,
2013-05-04 20:43:00,52.3,49.2,29.89,ENE,67,0.0,0.0,89,0.10,,,0.75,WUHU21623XXSP,2013-05-05 00:43:00,
2013-05-04 20:48:00,52.3,49.2,29.90,ENE,67,0.0,0.0,89,0.10,,,0.75,WUHU21623XXSP,2013-05-05 00:48:00,
2013-05-04 20:53:00,52.3,49.2,29.90,ENE,67,0.0,0.0,89,0.06,,,0.79,WUHU21623XXSP,2013-05-05 00:53:00,
2013-05-04 20:58:00,52.3,49.2,29.90,ENE,67,0.0,0.0,89,0.06,,,0.79,WUHU21623XXSP,2013-05-05 00:58:00,
2013-05-04 21:03:00,52.5,49.2,29.90,ENE,67,0.0,0.0,89,0.04,,,0.79,WUHU21623XXSP,2013-05-05 01:03:00,
2013-05-04 21:08:00,52.5,49.3,29.90,ENE,67,0.0,0.0,89,0.04,,,0.79,WUHU21623XXSP,2013-05-05 01:08:00,
2013-05-04 21:13:00,52.5,49.3,29.90,ENE,67,0.0,0.0,89,0.04,,,0.79,WUHU21623XXSP,2013-05-05 01:13:00,
2013-05-04 21:18:00,52.5,49.3,29.90,ENE,67,0.0,0.0,89,0.04,,,0.79,WUHU21623XXSP,2013-05-05 01:18:00,
2013-05-04 21:24:00,52.5,49.3,29.90,ENE,67,0.0,0.0,89,0.06,,,0.81,WUHU21623XXSP,2013-05-05 01:24:00,
2013-05-04 21:29:00,52.5,49.3,29.90,ENE,67,0.0,0.0,89,0.06,,,0.81,WUHU21623XXSP,2013-05-05 01:29:00,
2013-05-04 21:34:00,52.5,49.3,29.91,ENE,67,0.0,0.0,89,0.06,,,0.81,WUHU21623XXSP,2013-05-05 01:34:00,
2013-05-04 21:39:00,52.5,49.3,29.91,ENE,67,0.0,0.0,89,0.06,,,0.81,WUHU21623XXSP,2013-05-05 01:39:00,
2013-05-04 21:44:00,52.5,49.3,29.90,ENE,67,0.0,0.0,89,0.06,,,0.81,WUHU21623XXSP,2013-05-05 01:44:00,
2013-05-04 21:49:00,52.7,49.5,29.91,ENE,67,0.0,0.0,89,0.04,,,0.81,WUHU21623XXSP,2013-05-05 01:49:00,
2013-05-04 21:54:00,52.7,49.5,29.90,ENE,67,0.0,0.0,89,0.04,,,0.83,WUHU21623XXSP,2013-05-05 01:54:00,
2013-05-04 21:59:00,52.7,49.5,29.89,ENE,67,0.0,0.0,89,0.04,,,0.83,WUHU21623XXSP,2013-05-05 01:59:00,
2013-05-04 22:04:00,52.7,49.5,29.90,ENE,67,0.0,0.0,89,0.04,,,0.83,WUHU21623XXSP,2013-05-05 02:04:00,
2013-05-04 22:09:00,52.7,49.5,29.90,ENE,67,0.0,0.0,89,0.06,,,0.85,WUHU21623XXSP,2013-05-05 02:09:00,
2013-05-04 22:14:00,52.5,49.3,29.89,ENE,67,0.0,0.0,89,0.06,,,0.85,WUHU21623XXSP,2013-05-05 02:14:00,
2013-05-04 22:19:00,52.5,49.3,29.89,ENE,67,0.0,0.0,89,0.06,,,0.85,WUHU21623XXSP,2013-05-05 02:19:00,
2013-05-04 22:24:00,52.5,49.3,29.89,ENE,67,0.0,0.0,89,0.04,,,0.85,WUHU21623XXSP,2013-05-05 02:24:00,
2013-05-04 22:29:00,52.5,49.3,29.89,ENE,67,0.0,0.0,89,0.04,,,0.85,WUHU21623XXSP,2013-05-05 02:29:00,
2013-05-04 22:34:00,52.5,49.3,29.89,ENE,67,0.0,0.0,89,0.04,,,0.85,WUHU21623XXSP,2013-05-05 02:34:00,
2013-05-04 22:39:00,52.5,49.3,29.90,ENE,67,0.0,0.0,89,0.04,,,0.85,WUHU21623XXSP,2013-05-05 02:39:00,
2013-05-04 22:44:00,52.5,49.3,29.90,ENE,67,0.0,0.0,89,0.04,,,0.85,WUHU21623XXSP,2013-05-05 02:44:00,
2013-05-04 22:49:00,52.5,49.3,29.90,ENE,67,0.0,0.0,89,0.02,,,0.85,WUHU21623XXSP,2013-05-05 02:49:00,
2013-05-04 22:54:00,52.5,49.3,29.91,ENE,67,0.0,0.0,89,0.04,,,0.88,WUHU21623XXSP,2013-05-05 02:54:00,
2013-05-04 22:59:00,52.5,49.3,29.90,ENE,67,0.0,0.0,89,0.04,,,0.88,WUHU21623XXSP,2013-05-05 02:59:00,
2013-05-04 23:04:00,52.5,49.3,29.90,ENE,67,0.0,0.0,89,0.02,,,0.88,WUHU21623XXSP,2013-05-05 03:04:00,
2013-05-04 23:09:00,52.5,49.3,29.89,ENE,67,0.0,0.0,89,0.02,,,0.88,WUHU21623XXSP,2013-05-05 03:09:00,
2013-05-04 23:14:00,52.5,49.3,29.89,ENE,67,0.0,0.0,89,0.02,,,0.88,WUHU21623XXSP,2013-05-05 03:14:00,
2013-05-04 23:19:00,52.5,49.3,29.88,ENE,67,0.0,0.0,89,0.02,,,0.88,WUHU21623XXSP,2013-05-05 03:19:00,
2013-05-04 23:24:00,52.5,49.3,29.88,ENE,67,0.0,0.0,89,0.02,,,0.88,WUHU21623XXSP,2013-05-05 03:24:00,
2013-05-04 23:29:00,52.5,49.3,29.88,ENE,67,0.0,0.0,89,0.02,,,0.88,WUHU21623XXSP,2013-05-05 03:29:00,
2013-05-04 23:34:00,52.3,49.2,29.88,ENE,67,0.0,0.0,89,0.02,,,0.88,WUHU21623XXSP,2013-05-05 03:34:00,
2013-05-04 23:39:00,52.3,49.2,29.88,ENE,67,0.0,0.0,89,0.02,,,0.88,WUHU21623XXSP,2013-05-05 03:39:00,
2013-05-04 23:44:00,52.3,49.2,29.88,ENE,67,0.0,0.0,89,0.04,,,0.90,WUHU21623XXSP,2013-05-05 03:44:00,
2013-05-04 23:49:00,52.3,49.3,29.88,ENE,67,0.0,0.0,89,0.02,,,0.90,WUHU21623XXSP,2013-05-05 03:49:00,
2013-05-04 23:54:00,52.3,49.2,29.88,ENE,67,0.0,0.0,89,0.02,,,0.90,WUHU21623XXSP,2013-05-05 03:54:00,
2013-05-04 23:59:00,52.3,49.2,29.88,ENE,67,0.0,0.0,89,0.02,,,0.90,WUHU21623XXSP,2013-05-05 03:59:00,